RH
75 74 70 66 63 62 62 58 52 48 48 48 43 41 43 44 43 43 45 46 43 41 39 35 34 36 33 28 26 28 32 35 36 37 38 40 43 45 42 40 43 47 47 45 45 46 48 50 50 50 49 44 41 42 42 39 36 36 37 38 40 42 43
73 75 75 72 68 67 67 64 57 50 50 49 44 41 43 43 41 41 44 45 42 38 38 37 34 35 34 30 28 27 29 34 36 37 39 41 45 47 46 45 45 47 51 52 51 50 49 48 49 49 50 47 43 41 40 38 35 35 38 38 36 38 39
70 72 74 73 71 70 72 70 63 56 51 48 45 43 44 43 41 40 43 45 43 38 35 36 36 35 34 33 31 29 27 31 36 39 41 42 43 46 49 50 48 48 52 52 54 56 52 50 50 48 48 47 44 44 41 38 37 36 38 39 38 38 38
68 69 73 74 71 71 74 74 68 61 54 49 46 44 44 43 42 40 43 46 45 40 34 34 35 35 35 33 33 31 27 28 34 38 42 46 46 47 52 52 48 47 50 50 52 54 55 55 52 48 48 46 44 45 44 41 40 40 39 40 40 39 39
66 68 71 74 74 73 74 74 71 64 58 53 48 46 47 47 44 42 44 47 45 42 38 36 38 39 38 35 33 33 30 28 32 36 40 45 47 47 52 55 51 47 47 50 52 52 54 57 56 52 49 45 43 46 45 42 43 43 41 40 41 40 41
67 67 69 73 75 74 73 72 71 67 63 58 51 49 52 53 50 46 47 48 45 43 42 40 40 42 43 40 37 36 36 33 32 35 38 42 44 46 51 55 54 51 51 52 52 51 52 54 55 55 54 49 45 48 49 46 45 45 43 41 41 42 44
66 66 68 71 73 74 73 72 72 71 69 64 56 53 55 56 55 53 53 53 47 44 43 41 40 41 43 44 42 40 40 39 36 37 40 41 42 44 49 54 53 52 54 55 55 56 57 56 54 54 54 52 51 52 53 52 51 50 49 46 42 42 46
65 66 68 71 73 74 73 72 72 72 74 69 59 55 57 57 60 61 59 57 53 47 45 42 40 41 42 44 44 42 42 43 41 41 40 40 41 42 47 51 51 49 51 54 54 55 57 57 56 56 53 51 54 55 55 55 54 52 53 51 46 44 46
64 67 69 70 73 75 74 74 73 72 75 74 65 61 60 59 63 65 60 57 57 54 50 46 45 44 43 43 44 45 44 44 45 44 41 40 41 42 44 47 49 48 48 50 50 51 55 56 57 59 58 55 55 54 55 56 53 50 51 53 52 48 47
64 67 69 69 73 75 75 75 75 73 74 74 71 71 70 66 65 65 60 58 60 59 55 53 52 49 45 44 44 44 45 45 46 46 44 42 41 42 44 45 47 48 47 49 51 52 54 56 56 56 57 59 57 52 51 53 53 51 50 51 53 50 48
67 69 70 71 72 73 75 78 78 76 76 76 75 77 78 75 69 66 64 62 63 64 60 59 59 54 48 47 46 45 45 45 45 45 45 44 43 42 42 43 44 46 47 49 52 53 54 56 57 55 55 58 59 55 50 50 50 50 47 48 52 53 50
71 72 72 72 73 72 75 78 79 79 81 81 80 79 79 78 75 71 69 66 66 69 68 67 66 57 50 49 46 45 47 46 44 45 44 44 44 42 42 43 42 44 48 49 49 52 56 57 57 56 55 57 59 57 53 52 50 47 45 43 46 53 55
71 73 72 71 71 73 75 77 78 79 79 80 80 79 78 80 79 77 74 68 65 68 71 75 72 58 49 48 44 44 51 54 49 46 45 45 45 44 42 43 44 44 46 48 48 49 53 57 60 60 57 58 59 57 55 54 53 50 47 43 41 46 52
71 70 71 72 72 73 74 75 77 78 78 78 77 77 77 79 80 79 77 73 71 71 73 74 68 55 47 48 45 43 53 59 54 46 45 45 46 46 44 44 45 45 45 47 48 46 46 54 63 66 60 57 58 58 55 55 55 52 50 49 44 42 45
74 71 71 73 73 74 74 74 74 76 78 78 78 76 75 78 79 78 77 77 77 77 76 72 66 56 50 49 47 47 53 57 50 44 44 45 44 45 46 46 46 45 45 48 48 47 45 49 60 65 60 57 58 57 56 57 58 55 54 55 52 46 46
75 73 71 70 70 71 71 72 72 73 75 77 78 77 77 79 79 77 75 73 71 73 73 73 71 66 58 53 51 51 54 54 48 44 45 46 46 47 47 48 48 47 48 48 48 48 46 49 61 65 58 56 59 60 58 58 58 57 57 58 57 54 51
74 72 73 73 73 72 71 71 71 72 73 75 76 77 77 78 77 75 74 71 67 67 70 74 78 76 71 66 62 59 59 58 56 53 52 51 51 53 53 52 51 50 51 51 51 53 53 56 66 70 66 62 61 61 61 60 59 60 60 61 59 56 53
76 78 77 76 79 78 72 70 70 72 71 72 74 76 77 78 76 74 73 71 67 65 67 72 77 78 76 74 71 70 69 69 68 66 64 60 59 63 65 63 58 55 55 56 58 65 69 67 67 69 73 70 59 57 64 65 60 59 61 63 61 57 53
75 80 79 76 76 75 71 70 72 74 74 73 74 76 76 76 75 73 72 72 70 66 64 67 70 73 74 75 75 75 74 75 76 75 74 73 72 72 73 72 70 67 65 62 63 70 75 73 70 71 75 70 60 60 69 71 66 62 62 62 61 60 58
70 73 76 74 72 70 72 75 76 77 75 74 73 73 74 76 75 73 72 73 73 71 68 68 69 72 74 76 77 79 79 79 79 80 80 81 80 80 79 79 79 80 79 76 73 74 74 72 73 77 77 72 67 65 66 66 68 69 66 63 63 64 59
70 70 70 71 71 72 76 81 83 82 81 79 76 75 78 79 76 72 70 73 76 75 74 74 73 75 77 77 79 81 82 83 83 84 85 85 86 86 86 87 87 86 85 84 83 83 82 78 78 80 79 76 73 69 65 63 65 69 66 63 62 61 54
69 69 69 69 70 73 76 80 82 81 80 80 78 77 78 77 75 72 70 72 75 75 74 74 74 75 78 80 80 81 82 83 84 83 84 86 88 89 89 89 89 88 87 86 85 86 88 87 85 83 80 78 75 72 71 69 67 68 68 64 58 53 50
65 65 65 64 65 69 71 73 74 75 76 75 73 73 73 72 72 72 70 72 74 73 73 74 72 72 76 80 82 82 82 82 83 82 84 85 87 88 89 89 89 89 88 86 85 87 89 89 88 85 83 80 79 76 77 77 74 71 72 70 63 54 49
63 61 60 60 60 61 63 65 66 68 70 69 68 68 67 67 69 70 70 71 73 74 75 75 74 72 72 75 77 79 80 80 80 81 82 84 86 87 87 86 86 87 86 85 85 87 87 85 84 84 84 85 84 82 81 83 82 78 78 79 74 63 54
60 56 55 56 55 55 56 57 58 60 61 63 65 65 63 61 62 63 65 66 69 73 75 75 74 72 70 70 71 73 77 78 77 77 80 84 85 84 82 82 82 84 83 83 84 84 84 83 83 84 86 89 92 91 88 86 85 84 84 85 81 73 65
61 58 55 55 53 52 52 52 53 55 55 57 59 59 59 58 56 55 57 60 63 69 73 73 73 72 71 70 70 69 72 75 76 77 80 83 84 83 81 80 81 83 83 83 84 83 83 82 81 83 86 90 92 93 92 89 87 87 88 87 84 80 75
62 59 56 55 54 51 49 49 50 51 53 55 56 56 57 60 59 57 58 60 62 66 70 72 73 73 70 68 67 67 67 72 77 79 79 81 83 83 80 79 80 80 78 76 77 77 77 76 76 80 87 91 91 92 95 93 87 86 90 90 86 83 81
58 57 57 57 57 54 50 49 48 47 48 52 56 58 59 60 61 60 59 60 62 65 66 67 69 71 70 68 68 68 66 68 74 78 79 82 83 81 78 77 78 74 70 69 71 71 71 70 72 78 88 94 93 92 94 93 88 86 89 89 86 83 82
60 59 59 61 62 61 57 54 52 50 50 51 52 55 57 58 59 58 57 58 61 63 64 62 61 62 65 67 68 68 69 72 76 75 74 79 83 81 78 77 75 72 69 68 69 69 68 68 68 73 83 92 92 90 90 90 90 89 86 84 83 83 84
64 60 60 61 61 61 58 58 57 56 58 59 55 51 51 53 58 60 60 60 62 63 65 65 63 60 61 64 65 65 67 74 79 75 69 73 79 81 82 81 77 74 72 70 68 68 68 67 67 68 74 79 82 85 87 86 86 84 79 75 77 79 81
69 65 63 61 58 57 57 59 61 60 60 62 61 58 56 55 58 62 62 63 62 62 65 67 67 65 62 59 61 65 67 70 72 69 67 72 76 77 80 83 81 77 74 70 67 68 69 69 68 68 69 68 70 75 78 77 75 74 71 71 73 75 75
68 66 64 60 57 57 58 61 65 65 62 61 61 62 64 65 65 63 62 63 64 65 70 73 70 66 62 56 55 61 67 69 68 67 69 76 79 77 78 80 79 77 75 70 66 67 69 69 68 68 68 67 66 67 70 73 73 72 72 73 73 72 71
65 64 63 60 58 58 58 60 63 64 63 63 62 60 59 62 65 66 62 60 60 63 69 74 73 69 67 63 59 60 62 64 67 69 70 72 75 76 77 79 77 75 76 73 69 68 69 69 69 69 69 68 67 67 70 74 75 74 73 71 69 67 67
70 67 65 64 63 62 61 60 61 59 59 61 64 64 61 58 60 63 61 58 56 56 59 65 69 70 70 68 66 65 62 59 62 69 71 69 71 74 75 75 74 71 71 71 69 67 68 69 68 68 69 69 70 71 73 74 74 73 72 69 66 62 61
72 70 68 66 66 64 63 62 63 61 59 59 62 65 65 63 62 61 60 60 58 56 58 63 66 66 67 68 66 67 65 61 63 70 71 69 72 72 70 68 67 62 63 67 67 65 66 65 61 59 61 63 65 67 68 68 65 64 61 59 56 53 49
73 74 71 68 67 66 64 64 64 61 59 59 60 60 60 63 65 64 62 60 58 55 57 62 63 62 63 63 61 61 64 65 64 66 67 69 74 73 68 65 64 60 58 60 61 60 60 59 56 55 56 56 55 56 57 56 54 52 49 46 44 41 37
70 72 71 70 71 69 66 65 67 66 63 62 62 59 56 57 60 62 62 61 60 58 57 60 64 65 64 61 56 55 60 63 60 58 58 62 69 73 73 72 71 69 64 58 53 50 49 48 49 49 50 49 47 45 45 45 44 42 39 36 33 31 30
64 67 67 67 68 67 65 64 67 68 67 66 66 63 59 56 56 57 57 56 58 61 62 64 71 74 72 67 61 55 55 59 58 57 55 54 59 66 71 73 74 73 69 61 55 50 46 43 42 42 43 43 41 39 38 37 36 34 33 32 30 30 30